Retour au catalogue

STARLINK-2387

ActifCommunicationsVLEO
NORAD 47806·PAYLOAD·🇺🇸 United States

Lancé Mar 11, 2021 depuis Cape Canaveral Space Force Station

Loading…

Prochains Passages (prochaines 24 heures)

TLE

FraisSource: CelesTrak SupGP

Époque: Sep 15, 2026, 00:38 UTC

1 47806C 21018V   26258.02687500  .00027823  00000+0  89466-3 0  2583
2 47806  53.1577  81.8453 0001358  86.8445 251.1353 15.31690014    17

Suivez STARLINK-2387 en temps réel avec AllMySat

Download on the App Store